TimePST,TemperatureF,Dew PointF,Humidity,Sea Level PressureIn,VisibilityMPH,Wind Direction,Wind SpeedMPH,Gust SpeedMPH,PrecipitationIn,Events,Conditions,WindDirDegrees,DateUTC
12:56 AM,52.0,46.9,83,29.94,8.0,SSE,13.8,-,0.02,Rain,Light Rain,150,2004-01-01 08:56:00
1:56 AM,51.1,48.0,89,29.92,5.0,ESE,12.7,-,0.07,Rain,Light Rain,120,2004-01-01 09:56:00
2:04 AM,51.8,48.2,88,29.92,4.0,ESE,15.0,24.2,0.02,Rain,Rain,120,2004-01-01 10:04:00
2:56 AM,52.0,48.0,86,29.93,5.0,South,20.7,25.3,0.09,Rain,Rain,170,2004-01-01 10:56:00
3:17 AM,51.8,46.4,82,29.90,5.0,South,21.9,28.8,0.04,Rain,Rain,170,2004-01-01 11:17:00
3:56 AM,53.1,48.0,83,29.90,5.0,SSE,16.1,28.8,0.13,Rain,Rain,160,2004-01-01 11:56:00
4:56 AM,53.1,48.9,86,29.89,4.0,South,18.4,40.3,0.15,Rain,Rain,170,2004-01-01 12:56:00
5:56 AM,53.1,46.0,77,29.89,5.0,South,20.7,38.0,0.17,Rain,Rain,170,2004-01-01 13:56:00
6:56 AM,54.0,48.9,83,29.86,3.0,South,29.9,50.6,0.20,Rain,Rain,180,2004-01-01 14:56:00
7:35 AM,53.6,48.2,82,29.85,2.5,South,31.1,51.8,0.16,Rain,Light Rain,180,2004-01-01 15:35:00
7:56 AM,54.0,50.0,86,29.85,2.5,South,31.1,50.6,0.27,,Overcast,170,2004-01-01 15:56:00
8:33 AM,53.6,50.0,88,29.83,1.8,South,43.7,54.1,0.17,,Overcast,170,2004-01-01 16:33:00
8:56 AM,54.0,51.1,90,29.84,1.0,South,29.9,42.6,0.35,Rain,Light Rain,180,2004-01-01 16:56:00
9:56 AM,55.0,52.0,89,29.88,1.0,South,38.0,52.9,0.41,,Overcast,180,2004-01-01 17:56:00
10:56 AM,55.0,52.0,89,29.89,1.2,SSW,29.9,42.6,0.25,Rain,Light Rain,200,2004-01-01 18:56:00
11:06 AM,53.6,50.0,88,29.93,2.5,WSW,24.2,40.3,0.02,Rain,Light Rain,250,2004-01-01 19:06:00
11:56 AM,53.1,50.0,89,29.93,2.5,West,17.3,29.9,0.05,Rain,Light Rain,260,2004-01-01 19:56:00
12:07 PM,53.6,50.0,88,29.93,6.0,WSW,17.3,-,0.00,Rain,Light Rain,250,2004-01-01 20:07:00
12:56 PM,54.0,48.9,83,29.94,7.0,West,13.8,-,0.00,,Overcast,260,2004-01-01 20:56:00
1:38 PM,53.6,44.6,72,29.95,10.0,West,6.9,-,N/A,,Overcast,260,2004-01-01 21:38:00
1:56 PM,53.1,45.0,74,29.96,10.0,WNW,3.5,-,N/A,,Overcast,290,2004-01-01 21:56:00
2:56 PM,53.1,44.1,71,29.98,10.0,Variable,4.6,-,N/A,,Overcast,0,2004-01-01 22:56:00
3:56 PM,52.0,46.9,83,30.01,9.0,WNW,12.7,-,N/A,,Overcast,290,2004-01-01 23:56:00
4:56 PM,51.1,45.0,80,30.02,10.0,NW,3.5,-,N/A,,Overcast,310,2004-01-02 00:56:00
5:56 PM,51.1,45.0,80,30.04,10.0,South,3.5,-,N/A,,Overcast,170,2004-01-02 01:56:00
6:56 PM,50.0,45.0,83,30.05,10.0,South,4.6,-,N/A,,Overcast,170,2004-01-02 02:56:00
7:56 PM,48.9,46.0,90,30.07,10.0,South,3.5,-,N/A,,Mostly Cloudy,180,2004-01-02 03:56:00
8:56 PM,48.0,44.1,86,30.09,10.0,Calm,Calm,-,N/A,,Mostly Cloudy,0,2004-01-02 04:56:00
9:56 PM,46.0,42.1,86,30.10,10.0,SW,4.6,-,N/A,,Scattered Clouds,220,2004-01-02 05:56:00
10:56 PM,46.0,42.1,86,30.10,10.0,Calm,Calm,-,N/A,,Partly Cloudy,0,2004-01-02 06:56:00
11:56 PM,45.0,42.1,90,30.10,10.0,Calm,Calm,-,0.00,Rain,Light Rain,0,2004-01-02 07:56:00